{"data":{"norad_id":89395,"intl_designator":"","name":"UNKNOWN","alt_names":[],"object_type":"UNKNOWN","status":"UNKNOWN","operator":null,"country":null,"launch_date":null,"launch_site_code":null,"launch_vehicle":null,"mission":null,"orbit_class":"UNKNOWN","rcs_meters":null,"size_class":null,"mass_kg":null,"dimensions":null,"purposes":[],"wikipedia_slug":null,"has_3d_model":false,"image_url":null,"decayed_at":null,"tle_current":{"epoch":"2026-09-18T07:58:56.193312Z","epoch_age_seconds":205343,"freshness":"STALE","line1":"1 89395U          26261.33259483  .00000381  00000+0  47675-2 0  9990","line2":"2 89395 102.3997 219.3545 0227073  10.4262 149.4035 12.01593058558325","mean_motion":12.01593058,"eccentricity":0.0227073,"inclination_deg":102.3997,"raan_deg":219.3545,"arg_perigee_deg":10.4262,"mean_anomaly_deg":149.4035,"bstar":0.0047675,"rev_number":55832,"period_min":119.84090540576,"perigee_km":1490.8994262393,"apogee_km":1856.572004867,"semimajor_km":8051.8727155531,"source":"CELESTRAK","updated_at":"2026-09-20T09:00:32.485059Z"}}}